Погода в Кизляре

Поиск расширенной информации на нашем сайте:

Полезная информация:

Новости сайта



02.01.2020
Опубликован Долгосрочный прогноз погоды по городам России и ближнего зарубежья на январь 2020 года.
Карты: Прогноз на январь и февраль 2020 года, Сравнение прогнозируемой аномалии приземной температуры воздуха на январь 2020 года по разным моделям.




Погода в Кизляре - сегодня

Время (UTC), дата Ветер
(°,м/с) 
Видим.   Явления Облачность Т
(°С)
Тd
(°С)
f(%) Тe
(°С)
Pmin
(гПа)
dP
(гПа)
Po
(мм)
O2
(г/м3)
Тmin Tmax R s Состояние
почвы
12 18.10.20 090 (В) 10 км    ясно 
+21.7 +14 62 +28  1014.6  -2  761  281           
15 18.10.20 090 (В) 10 км    ясно 
+16.6 +12.8 78 +22  1014.9  0.3  762  287    +22.1       
18 18.10.20 100 (В) 10 км    8/8 600 м средняя 
[Sc|Ac trans]
+14 +11.5 85 +18  1014.9  762  290           
21 18.10.20 тихо ()   10 км    8/8 600 м средняя 
[Sc|Ac trans]
+14.3 +12.3 88 +18  1014  -0.9  761  289           
00 19.10.20 тихо ()   4000 м    6/6 600 м средняя 
[Sc|Ac trans]
+13.9 +12.6 92 +18  1013.8  -0.2  761  289           
03 19.10.20 200 (Ю) 4000 м    8/8 600 м средняя 
[Sc|Ac trans]
+11.8 +11 95 +14  1014.9  1.1  762  292  +11.4        сухая 
06 19.10.20 210 (ЮЗ) 10 км    4/0 средняя 
[Ac trans]
+14.8 +11.8 82 +18  1015.7  0.8  762  289           
09 19.10.20 280 (З) 10 км    ясно 
+21.5 +13.5 60 +27  1014.2  -1.5  761  282           
12 19.10.20 030 (СВ) 10 км    ясно 
+23.2 +13.6 55 +29  1013.5  -0.7  761  280           
15 19.10.20 070 (В) 10 км    ясно 
+17.1 +13 77 +24  1013.9  0.4  761  286    +23.2       
18 19.10.20 080 (В) 10 км    ясно 
+14.2 +12.4 89 +19  1013.5  -0.4  761  289           
21 19.10.20 тихо ()   4000 м  дымка  ясно 
+13.1 +12.5 96 +17  1015.4  0.9  762  291           
00 20.10.20 160 (Ю) 10 км    8/8 600 м средняя 
[Sc|Ac trans]
+14.4 +12.2 87 +18  1018.3  2.9  764  290           
03 20.10.20 270 (З) 6-11{11}  10 км    10/10 600 м 
[Sc]
+15.8 +11 73 +17  1020.6  2.3  766  290  +13.4        сухая 
06 20.10.20 280 (З) 5-10{11}  10 км    10/10 600 м 
[Sc]
+14.9 +8.8 67 +14  1023.6  768  292           
09 20.10.20 270 (З) 5-10{10}  10 км    10/8 600 м средняя 
[Sc|Ac trans]
+17.3 +10.6 65 +18  1023.4  -0.2  768  289           
12 20.10.20 320 (СЗ) 10 км    8/8 600 м средняя 
[Sc|Ac trans]
+16.3 +17.3 100 +29  1023.7  0.3  768  288           
15 20.10.20 310 (СЗ) 10 км    8/8 600 м средняя 
[Sc|Ac trans]
+15.1 +10.2 73 +17  1023.9  0.2  768  292    +17.5       
18 20.10.20 280 (З) 10 км    8/8 600 м средняя 
[Sc|Ac trans]
+12.9 +10.2 84 +15  1024.3  0.4  769  294           
21 20.10.20 280 (З) 10 км    10/10 600 м 
[Sc]
+12.6 +10.6 88 +14  1024.5  0.2  769  294           
00 21.10.20 300 (СЗ) 10 км    4/4 600 м средняя 
[Sc|Ac trans]
+10.8 +9 89 +12  1024.5  769  296           
03 21.10.20 тихо ()   10 км    8/8 600 м средняя 
[Sc|Ac trans]
+9.3 +7.6 89 +9  1025.1  0.6  769  298  +9        сухая 
06 21.10.20 310 (СЗ) 10 км    8/8 600 м средняя 
[Sc|Ac trans]
+13.6 +8 69 +14  1027  1.9  771  294           
09 21.10.20 270 (З) 10 км    8/8 600 м средняя 
[Sc|Ac trans]
+15.8 +4.3 46 +16  1028.5  1.5  772  293           
12 21.10.20 270 (З) 10 км    9/9 600 м средняя 
[Sc|Ac trans]
+16.2 +2.5 40 +17  1029.7  1.2  773  294           
Время (UTC), дата Ветер
(°,м/с) 
Видим.   Явления Облачность Т
(°С)
Тd
(°С)
f(%) Тe
(°С)
Pmin
(гПа)
dP
(гПа)
Po
(мм)
O2
(г/м3)
Тmin Tmax R s Состояние
почвы

Для получения пояснительной информации подведите курсор к названию столбца.

ПОГОДА в Кизляре - архив

Всё, что Вы хотите узнать о погоде в Кизляре - удобно и подробно!

Выберите нужную дату (начиная с 1 января 2019* года) и нажмите кнопку "Найти".
Будут отображены архивные сводки погоды по пункту Кизляр, начиная с указанной даты.


Отображать данные в формате CSV (для использования в таблицах Excel)


Внимание! Наш архив погоды предназначен исключительно для личного некоммерческого использования в познавательных целях. Если Вам необходимы официальные справки о состоянии погоды (для производственных, юридических, коммерческих и т.п. целей), обращайтесь в органы Росгидромета.

*Примечание: данная дата относится к архиву по метеостанциям СССР (Россия, СНГ, Балтия).
Архив по метеостанциям Зарубежной Европы и Азии (кроме Китая) хранится 10 дней, по другим регионам земного шара (Китай, Африка, Америка, Австралия, Океания) - 1 день.

Кизляр - район местоположения метеостанции


Название, широта, долгота, высота метеостанции:
Кизляр 43.8°ш. 46.7°д. -5 м над ур. моря [Российская Федерация]

Дополнительная информация

В oтличие oт бoльшинства пoгoдных сайтoв мы публикуем пoдрoбную метеoинфoрмацию в детальнoм прoфессиoнальнoм фoрмате.

Характеристики температуры и влажнoсти вoздуха измеряются на высoте 2 м в тени вдали oт зданий и деревьев.
Скoрoсть ветра измеряется на высoте 10 м (на урoвне рoста челoвека скoрoсть ветра ниже в 1.5-2 раза). Если метеoстанция нахoдится в гoрoде или в лесу, тo скoрoсть ветра занижена на 2-4 м/с пo сравнению с oткрытым местoм. Скoрoсть ветра над акватoриями крупных рек и oзёр, а также на вершинах хoлмoв на 2-5 м/с выше, чем в oбычных услoвиях.
Атмoсфернoе давление в разных тoчках местнoсти мoжет значительнo oтличаться oт давления на метеoстанции, в зависимoсти oт услoвий рельефа (при пoдъёме на 10 м давление пoнижается примернo на 1 мм рт.ст.).